Flag for Colombia Weather past 2 weeks in Bogota, Colombia

Now
66 °F

Scattered clouds.


Feels Like: 66 °F
Forecast: N/A
Wind: 10 mph from Southeast

Location: Bogota / Eldorado

Current Time: May 6, 2015 at 3:40:47 PM

Latest Report: May 6, 2015 at 3:00 PM


Visibility: N/A

Pressure: 30.28 "Hg

Humidity: 46%

Dew point: 45 °F

Location of BogotaLocation

Historic Weather in Bogota — Graph

°F

Bogota temperature yesterday

Maximum temperature yesterday: 68 °F (at 2:00 PM)
Minimum temperature yesterday: 45 °F (at 4:00 AM)
Average temperature yesterday: 57 °F

Past Weeks' High & Low Weather Summary

 TemperatureHumidityPressure
High73 °F (May 2, 12:00 PM)100% (Apr 25, 7:00 AM)30.41 "Hg (Apr 25, 7:00 AM)
Low45 °F (May 2, 12:00 AM)25% (May 3, 11:00 AM)30.20 "Hg (Apr 27, 4:00 PM)
Average58 °F71%30.32 "Hg
* Reported Apr 21 2:00 PM — May 6 2:00 PM, Bogota, Weather by CustomWeather, © 2015

Note: Actual official high and low records may vary slightly from our data, if they occured in-between our weather recording intervals... More about our weather records

Advertising

Bogota weather history for previous 24 hours

 ConditionsComfort  
Time TempWeatherWind HumidityBarometerVisibility
2:00 PM
Wed, May 6
68 °FScattered clouds.9 mph40%30.32 "HgN/A
1:00 PM66 °FScattered clouds.12 mph43%30.35 "HgN/A
12:00 PM59 °FScattered clouds.14 mph55%30.37 "HgN/A
11:00 AM63 °FScattered clouds.13 mph52%30.40 "HgN/A
10:00 AM61 °FPartly sunny.9 mph55%30.41 "HgN/A
9:00 AM57 °FPartly sunny.2 mph77%30.40 "HgN/A
8:00 AM54 °FPartly sunny.3 mph88%30.39 "HgN/A
7:00 AM52 °FPartly sunny.2 mph88%30.36 "HgN/A
6:00 AM50 °FScattered clouds.2 mph88%30.34 "HgN/A
5:00 AM50 °FPassing clouds.5 mph88%30.34 "HgN/A
4:00 AM50 °FPassing clouds.No wind88%30.33 "HgN/A
3:00 AM48 °FPassing clouds.3 mph94%30.34 "HgN/A
2:00 AM50 °FPassing clouds.3 mph88%30.35 "HgN/A
1:00 AM52 °FPassing clouds.5 mph88%30.36 "HgN/A
12:00 AM54 °FPassing clouds.6 mph82%30.38 "HgN/A
11:00 PM
Tue, May 5
54 °FPassing clouds.5 mph82%30.39 "HgN/A
10:00 PM55 °FPassing clouds.2 mph77%30.38 "HgN/A
9:00 PM57 °FPassing clouds.No wind72%30.37 "HgN/A
8:00 PM59 °FPassing clouds.2 mph68%30.34 "HgN/A
7:00 PM61 °FPassing clouds.3 mph72%30.33 "HgN/A
6:00 PM63 °FScattered clouds.7 mph56%30.26 "HgN/A
5:00 PM64 °FPartly sunny.10 mph52%30.26 "HgN/A
4:00 PM68 °FScattered clouds.6 mph46%30.26 "HgN/A
3:00 PM66 °FScattered clouds.6 mph49%30.28 "HgN/A
Weather by CustomWeather, © 2015

See weather overviewHow to use our weather pages